FW6944 Weather Reports


Display with metric or nautical units.
time (UTC)temp
F
wind
direction
speed
MPH
gust
MPH
rain 1hr
in
rain 24hr
in
rain mn
in
humidity
%
barometer
mb
20210723185746 90 224 5.0 11.0 0.00 0.00 0.00 54 994.6
20210723185239 90 169 5.0 15.0 0.00 0.00 0.00 54 994.6
20210723184733 89 180 6.0 15.0 0.00 0.00 0.00 54 994.6
20210723184228 89 200 6.0 13.0 0.00 0.00 0.00 56 994.8
20210723183723 89 215 5.0 10.0 0.00 0.00 0.00 55 994.8
20210723183215 90 212 5.0 12.0 0.00 0.00 0.00 54 994.8
20210723182709 90 273 5.0 12.0 0.00 0.00 0.00 53 994.9
20210723182203 90 179 4.0 11.0 0.00 0.00 0.00 55 994.9
20210723181657 89 329 4.0 11.0 0.00 0.00 0.00 56 994.9
20210723181152 89 177 4.0 9.0 0.00 0.00 0.00 57 995.0
20210723180645 89 200 4.0 12.0 0.00 0.00 0.00 57 994.9
20210723180140 89 263 5.0 12.0 0.00 0.00 0.00 56 994.9
20210723175634 89 244 6.0 13.0 0.00 0.00 0.00 57 994.9
20210723175128 88 146 5.0 13.0 0.00 0.00 0.00 56 995.1
20210723174621 89 190 5.0 13.0 0.00 0.00 0.00 54 995.1
20210723174115 90 225 4.0 10.0 0.00 0.00 0.00 55 995.1
20210723173609 91 0 3.0 8.0 0.00 0.00 0.00 55 995.1
20210723173103 91 148 2.0 9.0 0.00 0.00 0.00 55 995.2
20210723172557 90 294 3.0 9.0 0.00 0.00 0.00 56 995.3
20210723172051 90 259 4.0 11.0 0.00 0.00 0.00 57 995.3
20210723171546 90 167 3.0 11.0 0.00 0.00 0.00 55 995.3
20210723171038 90 209 3.0 12.0 0.00 0.00 0.00 57 995.3
20210723170535 90 350 5.0 14.0 0.00 0.00 0.00 57 995.4
20210723170027 90 300 6.0 14.0 0.00 0.00 0.00 56 995.5
20210723165522 90 294 5.0 12.0 0.00 0.00 0.00 58 995.4
20210723165015 90 332 4.0 12.0 0.00 0.00 0.00 57 995.5
20210723164509 89 324 3.0 9.0 0.00 0.00 0.00 59 995.4
20210723164000 89 337 4.0 10.0 0.00 0.00 0.00 58 995.4
20210723163501 89 338 5.0 11.0 0.00 0.00 0.00 61 995.5
20210723163000 88 327 3.0 11.0 0.00 0.00 0.00 61 995.5
20210723162459 88 227 2.0 8.0 0.00 0.00 0.00 63 995.6
20210723161959 87 327 3.0 13.0 0.00 0.00 0.00 65 995.5
20210723161458 86 344 5.0 13.0 0.00 0.00 0.00 66 995.6
20210723160959 86 232 5.0 12.0 0.00 0.00 0.00 65 995.6
20210723160458 86 234 4.0 11.0 0.00 0.00 0.00 66 995.5
20210723155959 86 157 5.0 10.0 0.00 0.00 0.00 67 995.5
20210723155458 85 242 6.0 12.0 0.00 0.00 0.00 67 995.5
20210723154958 85 173 5.0 12.0 0.00 0.00 0.00 66 995.6
20210723154459 87 236 3.0 11.0 0.00 0.00 0.00 65 995.7
20210723153959 87 24 3.0 11.0 0.00 0.00 0.00 64 995.9
20210723153455 87 252 3.0 8.0 0.00 0.00 0.00 65 995.9
20210723152954 87 252 4.0 9.0 0.00 0.00 0.00 65 995.9
20210723152455 86 273 2.0 9.0 0.00 0.00 0.00 67 995.9
20210723151955 86 319 3.0 9.0 0.00 0.00 0.00 67 996.0
20210723151455 85 306 3.0 9.0 0.00 0.00 0.00 68 996.1
20210723150954 85 342 2.0 9.0 0.00 0.00 0.00 69 996.2
20210723150455 85 318 3.0 8.0 0.00 0.00 0.00 70 996.1
20210723145955 84 327 3.0 8.0 0.00 0.00 0.00 71 996.1
20210723145454 84 330 2.0 7.0 0.00 0.00 0.00 71 996.0
20210723144955 84 323 2.0 9.0 0.00 0.00 0.00 71 996.2
20210723144455 83 156 3.0 11.0 0.00 0.00 0.00 73 996.1
20210723143954 83 338 2.0 11.0 0.00 0.00 0.00 73 996.1
20210723143454 83 338 2.0 9.0 0.00 0.00 0.00 75 996.2
20210723142954 82 281 3.0 9.0 0.00 0.00 0.00 76 996.2
20210723142455 81 238 3.0 9.0 0.00 0.00 0.00 77 996.3
20210723141954 81 175 3.0 9.0 0.00 0.00 0.00 77 996.2
20210723141455 80 207 4.0 9.0 0.00 0.00 0.00 78 996.0
20210723140954 80 195 4.0 9.0 0.00 0.00 0.00 77 996.1
20210723140454 80 189 3.0 8.0 0.00 0.00 0.00 77 996.1
20210723135955 80 190 3.0 10.0 0.00 0.00 0.00 78 996.1
20210723135454 80 202 3.0 10.0 0.00 0.00 0.00 77 996.3
20210723134954 80 227 2.0 7.0 0.00 0.00 0.00 78 996.3
20210723134454 80 292 2.0 7.0 0.00 0.00 0.00 78 996.3
20210723133954 80 327 2.0 8.0 0.00 0.00 0.00 78 996.2
20210723133455 79 273 2.0 8.0 0.00 0.00 0.00 79 996.3
20210723132955 79 162 2.0 5.0 0.00 0.00 0.00 79 996.2
20210723132452 79 196 1.0 5.0 0.00 0.00 0.00 80 996.2
20210723131952 78 317 2.0 5.0 0.00 0.00 0.00 80 996.0
20210723131452 78 169 2.0 7.0 0.00 0.00 0.00 81 996.1
20210723130952 78 246 2.0 7.0 0.00 0.00 0.00 81 996.1
20210723130452 78 264 1.0 7.0 0.00 0.00 0.00 82 995.9
20210723125954 77 244 1.0 7.0 0.00 0.00 0.00 82 996.0
20210723125448 77 198 2.0 4.0 0.00 0.00 0.00 83 996.0
20210723124943 76 167 2.0 5.0 0.00 0.00 0.00 83 996.0
20210723124436 76 161 2.0 6.0 0.00 0.00 0.00 83 996.0
20210723123930 76 207 2.0 6.0 0.00 0.00 0.00 83 996.1
20210723123424 76 235 2.0 6.0 0.00 0.00 0.00 84 996.1
20210723122918 76 205 2.0 5.0 0.00 0.00 0.00 84 996.2
20210723122412 75 167 2.0 6.0 0.00 0.00 0.00 84 996.2
20210723121906 75 188 3.0 6.0 0.00 0.00 0.00 84 996.3
20210723121400 75 170 2.0 6.0 0.00 0.00 0.00 84 996.3
20210723120854 75 254 1.0 6.0 0.00 0.00 0.00 85 996.2
20210723120348 75 194 2.0 5.0 0.00 0.00 0.00 85 996.4
20210723115842 75 187 1.0 5.0 0.00 0.00 0.00 85 996.5
20210723115335 74 201 1.0 3.0 0.00 0.00 0.00 85 996.5
20210723114828 74 179 0.0 4.0 0.00 0.00 0.00 85 996.5
20210723114322 74 200 0.0 4.0 0.00 0.00 0.00 85 996.5
20210723113816 74 195 1.0 3.0 0.00 0.00 0.00 85 996.5
20210723113310 74 202 2.0 4.0 0.00 0.00 0.00 85 996.5
20210723112804 74 205 1.0 4.0 0.00 0.00 0.00 85 996.4
20210723112258 74 198 1.0 5.0 0.00 0.00 0.00 85 996.4
20210723111752 74 201 1.0 5.0 0.00 0.00 0.00 85 996.3
20210723111247 74 250 1.0 5.0 0.00 0.00 0.00 85 996.2
20210723110740 74 216 2.0 5.0 0.00 0.00 0.00 85 996.3
20210723110234 74 215 2.0 5.0 0.00 0.00 0.00 85 996.2
20210723105729 74 182 2.0 4.0 0.00 0.00 0.00 85 996.2
20210723105222 74 161 1.0 4.0 0.00 0.00 0.00 84 996.2
20210723104716 74 179 0.0 2.0 0.00 0.00 0.00 84 996.1
20210723104210 74 179 0.0 2.0 0.00 0.00 0.00 84 996.1
20210723103704 74 184 1.0 2.0 0.00 0.00 0.00 83 996.1
20210723103158 75 179 2.0 4.0 0.00 0.00 0.00 84 996.0
20210723102652 75 173 2.0 4.0 0.00 0.00 0.00 84 996.0
20210723102146 75 148 2.0 6.0 0.00 0.00 0.00 84 996.0
20210723101640 75 200 2.0 6.0 0.00 0.00 0.00 83 996.0
20210723101134 75 151 2.0 4.0 0.00 0.00 0.00 83 995.9
20210723100628 75 188 2.0 4.0 0.00 0.00 0.00 83 995.9
20210723100122 75 184 2.0 5.0 0.00 0.00 0.00 83 995.9
20210723095616 75 198 2.0 7.0 0.00 0.00 0.00 83 995.9
20210723095111 75 182 1.0 7.0 0.00 0.00 0.00 82 995.8
20210723094604 75 259 1.0 3.0 0.00 0.00 0.00 82 995.8
20210723094058 75 190 1.0 3.0 0.00 0.00 0.00 82 995.8
20210723093553 75 175 2.0 8.0 0.00 0.00 0.00 82 995.8
20210723093046 75 182 2.0 8.0 0.00 0.00 0.00 82 995.8
20210723092541 75 176 2.0 5.0 0.00 0.00 0.00 82 995.8
20210723092034 75 206 2.0 8.0 0.00 0.00 0.00 82 995.8
20210723091528 75 202 2.0 8.0 0.00 0.00 0.00 82 995.8
20210723091023 75 233 1.0 4.0 0.00 0.00 0.00 82 995.8
20210723090517 75 242 2.0 5.0 0.00 0.00 0.00 82 995.9
20210723090010 75 179 2.0 5.0 0.00 0.00 0.00 82 995.9
20210723085504 75 206 2.0 5.0 0.00 0.00 0.00 82 995.8
20210723084958 75 139 2.0 5.0 0.00 0.00 0.00 82 996.0
20210723084452 75 154 2.0 5.0 0.00 0.00 0.00 82 996.0
20210723083947 75 213 2.0 5.0 0.00 0.00 0.00 82 996.0
20210723083441 75 227 2.0 7.0 0.00 0.00 0.00 82 996.0
20210723082934 75 178 2.0 7.0 0.00 0.00 0.00 82 995.9
20210723082432 75 224 1.0 6.0 0.00 0.00 0.00 82 995.9
20210723081923 75 234 1.0 5.0 0.00 0.00 0.00 83 995.9
20210723081416 75 204 1.0 4.0 0.00 0.00 0.00 83 995.9
20210723080910 74 212 1.0 3.0 0.00 0.00 0.00 84 996.0
20210723080405 74 196 1.0 3.0 0.00 0.00 0.00 85 996.0
20210723075859 74 189 0.0 2.0 0.00 0.00 0.00 86 996.1
20210723075352 74 189 0.0 3.0 0.00 0.00 0.00 86 996.2
20210723074847 74 187 0.0 5.0 0.00 0.00 0.00 86 996.3
20210723074344 74 142 1.0 5.0 0.00 0.00 0.00 87 996.3
20210723073841 73 256 0.0 4.0 0.00 0.00 0.00 87 996.2
20210723073340 73 257 0.0 0.0 0.00 0.00 0.00 88 996.2
20210723072838 73 256 0.0 0.0 0.00 0.00 0.00 89 996.2
20210723072336 72 269 0.0 0.0 0.00 0.00 0.00 90 996.1
20210723071835 72 268 0.0 0.0 0.00 0.00 0.00 90 996.1
20210723071334 72 273 0.0 0.0 0.00 0.00 0.00 90 996.1
20210723070832 72 273 0.0 0.0 0.00 0.00 0.00 90 996.1
20210723070330 72 273 0.0 0.0 0.00 0.00 0.00 90 996.2
20210723065828 72 273 0.0 0.0 0.00 0.00 0.00 90 996.3
20210723065327 72 273 0.0 0.0 0.00 0.00 0.00 89 996.3
20210723064827 72 273 0.0 0.0 0.00 0.00 0.00 89 996.3
20210723064328 72 273 0.0 0.0 0.00 0.00 0.00 89 996.4
20210723063826 72 273 0.0 0.0 0.00 0.00 0.00 89 996.4
20210723063326 73 273 0.0 0.0 0.00 0.00 0.00 89 996.3
20210723062826 73 273 0.0 0.0 0.00 0.00 0.00 88 996.3
20210723062322 73 273 0.0 0.0 0.00 0.00 0.00 88 996.3
20210723061822 73 273 0.0 0.0 0.00 0.00 0.00 88 996.3
20210723061322 73 273 0.0 0.0 0.00 0.00 0.00 88 996.4
20210723060819 73 273 0.0 0.0 0.00 0.00 0.00 88 996.4
20210723060319 73 273 0.0 0.0 0.00 0.00 0.00 88 996.4
20210723055820 73 273 0.0 0.0 0.00 0.00 0.00 88 996.4
20210723055320 73 273 0.0 0.0 0.00 0.00 0.00 88 996.5
20210723054820 73 273 0.0 0.0 0.00 0.00 0.00 88 996.6
20210723054320 73 273 0.0 0.0 0.00 0.00 0.00 88 996.6
20210723053819 73 273 0.0 0.0 0.00 0.00 0.00 88 996.6
20210723053320 73 273 0.0 0.0 0.00 0.00 0.00 88 996.7
20210723052819 73 273 0.0 0.0 0.00 0.00 0.00 88 996.7
20210723052319 73 273 0.0 0.0 0.00 0.00 0.00 88 996.7
20210723051819 73 273 0.0 0.0 0.00 0.00 0.00 88 996.7
20210723051319 73 273 0.0 0.0 0.00 0.00 0.00 88 996.8
20210723050819 73 273 0.0 0.0 0.00 0.00 0.00 88 996.7
20210723050319 73 273 0.0 0.0 0.00 0.00 0.00 88 996.8
20210723045819 73 273 0.0 0.0 0.00 0.00 0.00 88 996.7
20210723045313 73 273 0.0 0.0 0.00 0.00 0.00 88 996.7
20210723044807 73 273 0.0 0.0 0.00 0.00 0.00 88 996.7
20210723044301 73 273 0.0 0.0 0.00 0.00 0.00 88 996.7
20210723043756 73 273 0.0 0.0 0.00 0.00 0.00 88 996.6
20210723043249 73 273 0.0 0.0 0.00 0.00 0.00 88 996.7
20210723042744 73 273 0.0 0.0 0.00 0.00 0.00 88 996.8
20210723042238 73 273 0.0 0.0 0.00 0.00 0.00 88 996.7
20210723041732 73 273 0.0 0.0 0.00 0.00 0.00 88 996.6
20210723041226 73 273 0.0 0.0 0.00 0.00 0.00 88 996.6
20210723040720 73 273 0.0 0.0 0.00 0.00 0.00 87 996.7
20210723040214 73 273 0.0 0.0 0.00 0.00 0.00 87 996.7
20210723035707 73 273 0.0 0.0 0.00 0.00 0.00 87 996.7
20210723035201 73 273 0.0 0.0 0.00 0.00 0.00 86 996.8
20210723034655 73 272 0.0 0.0 0.00 0.00 0.00 86 996.8
20210723034150 73 272 0.0 0.0 0.00 0.00 0.00 86 996.8
20210723033649 74 271 0.0 0.0 0.00 0.00 0.00 86 996.8
20210723033147 74 271 0.0 0.0 0.00 0.00 0.00 85 996.7
20210723032645 74 271 0.0 0.0 0.00 0.00 0.00 85 996.7
20210723032143 74 271 0.0 0.0 0.00 0.00 0.00 85 996.6
20210723031641 74 270 0.0 0.0 0.00 0.00 0.00 84 996.5
20210723031140 74 269 0.0 1.0 0.00 0.00 0.00 84 996.5
20210723030637 75 269 0.0 1.0 0.00 0.00 0.00 84 996.4
20210723030135 75 269 0.0 0.0 0.00 0.00 0.00 83 996.2
20210723025639 75 267 0.0 1.0 0.00 0.00 0.00 83 996.2
20210723025134 75 267 0.0 1.0 0.00 0.00 0.00 82 996.2
20210723024632 76 266 0.0 0.0 0.00 0.00 0.00 82 996.2
20210723024131 76 263 0.0 0.0 0.00 0.00 0.00 81 996.2
20210723023629 76 259 0.0 0.0 0.00 0.00 0.00 80 996.2
20210723023129 77 254 0.0 0.0 0.00 0.00 0.00 79 996.2
20210723022630 77 252 0.0 0.0 0.00 0.00 0.00 79 996.2
20210723022128 78 248 0.0 0.0 0.00 0.00 0.00 78 996.2
20210723021625 78 242 0.0 0.0 0.00 0.00 0.00 77 996.1
20210723021123 78 238 0.0 0.0 0.00 0.00 0.00 76 996.0
20210723020624 79 229 0.0 0.0 0.00 0.00 0.00 74 996.1
20210723020124 80 208 0.0 0.0 0.00 0.00 0.00 73 996.1
20210723015622 80 186 0.0 0.0 0.00 0.00 0.00 72 996.1
20210723015121 81 184 0.0 0.0 0.00 0.00 0.00 72 996.1
20210723014622 81 180 0.0 2.0 0.00 0.00 0.00 71 996.0
20210723014121 81 180 1.0 5.0 0.00 0.00 0.00 70 996.0
20210723013621 81 167 1.0 5.0 0.00 0.00 0.00 70 995.9
20210723013121 82 153 1.0 5.0 0.00 0.00 0.00 69 995.8
20210723012622 82 194 1.0 4.0 0.00 0.00 0.00 69 995.8
20210723012122 82 173 1.0 6.0 0.00 0.00 0.00 68 995.7
20210723011621 82 208 2.0 6.0 0.00 0.00 0.00 68 995.6
20210723011117 82 201 2.0 7.0 0.00 0.00 0.00 67 995.6
20210723010618 83 172 2.0 7.0 0.00 0.00 0.00 67 995.6
20210723010118 83 196 2.0 8.0 0.00 0.00 0.00 67 995.7
20210723005617 83 200 3.0 8.0 0.00 0.00 0.00 66 995.6
20210723005117 83 141 3.0 8.0 0.00 0.00 0.00 66 995.7
20210723004618 83 209 3.0 8.0 0.00 0.00 0.00 65 995.7
20210723004118 83 136 2.0 8.0 0.00 0.00 0.00 65 995.8
20210723003617 84 175 2.0 8.0 0.00 0.00 0.00 65 995.9
20210723003118 84 198 3.0 8.0 0.00 0.00 0.00 65 996.0
20210723002613 84 186 3.0 9.0 0.00 0.00 0.00 64 996.0
20210723002113 84 182 4.0 10.0 0.00 0.00 0.00 64 996.0
20210723001613 84 178 4.0 10.0 0.00 0.00 0.00 63 995.9
20210723001113 84 184 3.0 9.0 0.00 0.00 0.00 64 995.9
20210723000614 85 188 3.0 7.0 0.00 0.00 0.00 64 995.9
20210723000114 85 245 4.0 12.0 0.00 0.00 0.00 63 995.8
20210722235612 85 193 4.0 12.0 0.00 0.00 0.00 62 995.8
20210722235112 85 145 4.0 8.0 0.00 0.00 0.00 61 995.8
20210722234611 85 206 3.0 8.0 0.00 0.00 0.00 61 995.9
20210722234111 85 203 3.0 9.0 0.00 0.00 0.00 60 995.9
20210722233611 85 229 3.0 10.0 0.00 0.00 0.00 59 996.0
20210722233111 85 200 4.0 11.0 0.00 0.00 0.00 59 996.1
20210722232610 85 215 4.0 11.0 0.00 0.00 0.00 59 996.1
20210722232111 86 250 3.0 8.0 0.00 0.00 0.00 61 996.2
20210722231611 85 138 4.0 10.0 0.00 0.00 0.00 62 996.2
20210722231114 85 215 5.0 10.0 0.00 0.00 0.00 62 996.1
20210722230611 85 172 5.0 9.0 0.00 0.00 0.00 62 996.1
20210722230112 85 151 5.0 12.0 0.00 0.00 0.00 63 996.2
20210722225611 85 187 5.0 12.0 0.00 0.00 0.00 62 996.1
20210722225112 85 201 5.0 11.0 0.00 0.00 0.00 62 996.2
20210722224611 85 171 6.0 11.0 0.00 0.00 0.00 61 996.2
20210722224111 85 175 6.0 12.0 0.00 0.00 0.00 61 996.2
20210722223609 86 190 6.0 12.0 0.00 0.00 0.00 61 996.1
20210722223110 86 150 5.0 11.0 0.00 0.00 0.00 61 996.1
20210722222609 86 136 3.0 9.0 0.00 0.00 0.00 61 996.2
20210722222109 86 162 3.0 8.0 0.00 0.00 0.00 62 996.3
20210722221609 85 221 4.0 12.0 0.00 0.00 0.00 62 996.2
20210722221108 85 183 6.0 12.0 0.00 0.00 0.00 61 996.3
20210722220608 85 225 5.0 10.0 0.00 0.00 0.00 61 996.3
20210722220101 86 149 5.0 12.0 0.00 0.00 0.00 60 996.3
20210722215554 86 235 5.0 12.0 0.00 0.00 0.00 60 996.4
20210722215048 86 203 6.0 14.0 0.00 0.00 0.00 59 996.3
20210722214542 86 144 5.0 14.0 0.00 0.00 0.00 60 996.4
20210722214036 86 148 4.0 11.0 0.00 0.00 0.00 59 996.3
20210722213530 86 132 4.0 9.0 0.00 0.00 0.00 59 996.3
20210722213024 86 157 4.0 10.0 0.00 0.00 0.00 58 996.5
20210722212518 86 178 6.0 11.0 0.00 0.00 0.00 58 996.6
20210722212012 87 178 6.0 14.0 0.00 0.00 0.00 57 996.5
20210722211506 87 140 5.0 14.0 0.00 0.00 0.00 56 996.5
20210722211000 87 178 5.0 10.0 0.00 0.00 0.00 57 996.4
20210722210454 87 226 3.0 9.0 0.00 0.00 0.00 56 996.5
20210722205949 87 235 3.0 10.0 0.00 0.00 0.00 56 996.5
20210722205442 87 149 4.0 10.0 0.00 0.00 0.00 57 996.6
20210722204937 87 194 4.0 10.0 0.00 0.00 0.00 58 996.6
20210722204431 87 225 4.0 9.0 0.00 0.00 0.00 58 996.6
20210722203924 87 176 4.0 10.0 0.00 0.00 0.00 59 996.6
20210722203418 87 167 5.0 11.0 0.00 0.00 0.00 58 996.5
20210722202913 87 159 4.0 11.0 0.00 0.00 0.00 59 996.5
20210722202407 86 194 5.0 11.0 0.00 0.00 0.00 59 996.5
20210722201901 86 266 5.0 12.0 0.00 0.00 0.00 58 996.5
20210722201354 87 242 4.0 12.0 0.00 0.00 0.00 56 996.4
20210722200849 87 192 5.0 10.0 0.00 0.00 0.00 58 996.4
20210722200343 87 146 5.0 11.0 0.00 0.00 0.00 58 996.4
20210722195837 87 131 3.0 9.0 0.00 0.00 0.00 58 996.5
20210722195331 87 172 5.0 11.0 0.00 0.00 0.00 58 996.6
20210722194825 86 128 5.0 11.0 0.00 0.00 0.00 58 996.6
20210722194318 86 209 5.0 11.0 0.00 0.00 0.00 58 996.7
20210722193812 86 259 5.0 12.0 0.00 0.00 0.00 60 996.7
20210722193306 87 225 4.0 12.0 0.00 0.00 0.00 60 996.8
20210722192801 87 196 3.0 10.0 0.00 0.00 0.00 58 996.9
20210722192255 87 160 4.0 10.0 0.00 0.00 0.00 59 997.0
20210722191749 87 168 5.0 11.0 0.00 0.00 0.00 58 997.0
20210722191243 87 158 4.0 11.0 0.00 0.00 0.00 58 997.1
20210722190737 87 259 4.0 11.0 0.00 0.00 0.00 60 997.2
20210722190231 87 175 4.0 11.0 0.00 0.00 0.00 59 997.1